TimeEDT,TemperatureF,Dew PointF,Humidity,Sea Level PressureIn,VisibilityMPH,Wind Direction,Wind SpeedMPH,Gust SpeedMPH,PrecipitationIn,Events,Conditions,WindDirDegrees,DateUTC
12:54 AM,59.0,50.0,72,30.12,10.0,Calm,Calm,-,N/A,,Clear,0,2012-10-26 04:54:00
2:54 AM,55.0,50.0,83,30.12,10.0,Calm,Calm,-,N/A,,Clear,0,2012-10-26 06:54:00
3:54 AM,52.0,48.0,86,30.14,10.0,West,3.5,-,N/A,,Clear,280,2012-10-26 07:54:00
4:54 AM,54.0,48.9,83,30.15,10.0,West,3.5,-,N/A,,Mostly Cloudy,280,2012-10-26 08:54:00
5:03 AM,53.6,48.2,82,30.17,10.0,Calm,Calm,-,N/A,,Overcast,0,2012-10-26 09:03:00
5:54 AM,55.9,51.1,84,30.16,10.0,North,3.5,-,N/A,,Overcast,360,2012-10-26 09:54:00
6:47 AM,57.2,51.8,82,30.18,10.0,Calm,Calm,-,N/A,,Overcast,0,2012-10-26 10:47:00
6:54 AM,57.0,51.1,81,30.16,10.0,Calm,Calm,-,N/A,,Overcast,0,2012-10-26 10:54:00
7:54 AM,57.2,51.8,82,30.18,10.0,Calm,Calm,-,N/A,,Overcast,0,2012-10-26 11:54:00
8:54 AM,59.0,53.1,81,30.17,9.0,Calm,Calm,-,N/A,,Overcast,0,2012-10-26 12:54:00
9:54 AM,60.1,54.0,80,30.19,10.0,Calm,Calm,-,N/A,,Overcast,0,2012-10-26 13:54:00
10:54 AM,61.0,55.0,81,30.19,7.0,Calm,Calm,-,N/A,,Overcast,0,2012-10-26 14:54:00
11:54 AM,62.1,55.9,80,30.17,7.0,SSE,4.6,-,N/A,,Overcast,160,2012-10-26 15:54:00
12:54 PM,63.0,55.9,78,30.13,6.0,SSW,3.5,-,N/A,,Haze,210,2012-10-26 16:54:00
1:38 PM,64.4,55.4,73,30.12,6.0,South,5.8,-,N/A,,Haze,170,2012-10-26 17:38:00
1:54 PM,64.9,57.0,75,30.10,7.0,SSE,5.8,-,N/A,,Scattered Clouds,150,2012-10-26 17:54:00
2:54 PM,66.0,57.0,73,30.07,7.0,SSE,11.5,-,N/A,,Partly Cloudy,150,2012-10-26 18:54:00
3:54 PM,66.0,57.0,73,30.06,6.0,South,6.9,-,N/A,,Haze,170,2012-10-26 19:54:00
4:54 PM,66.0,57.0,73,30.05,6.0,SSE,6.9,-,N/A,,Haze,160,2012-10-26 20:54:00
5:54 PM,64.0,55.9,75,30.05,9.0,SE,4.6,-,N/A,,Partly Cloudy,140,2012-10-26 21:54:00
6:54 PM,64.0,55.9,75,30.06,10.0,Calm,Calm,-,N/A,,Scattered Clouds,0,2012-10-26 22:54:00
7:54 PM,61.0,55.0,81,30.07,8.0,Calm,Calm,-,N/A,,Scattered Clouds,0,2012-10-26 23:54:00
8:54 PM,61.0,55.9,83,30.07,8.0,NW,3.5,-,N/A,,Scattered Clouds,310,2012-10-27 00:54:00
9:54 PM,61.0,55.9,83,30.06,8.0,Calm,Calm,-,N/A,,Scattered Clouds,0,2012-10-27 01:54:00
10:52 PM,60.8,55.4,82,30.06,8.0,NNE,4.6,-,N/A,,Mostly Cloudy,30,2012-10-27 02:52:00
10:54 PM,60.1,55.0,83,30.05,8.0,NNE,4.6,-,N/A,,Scattered Clouds,20,2012-10-27 02:54:00
11:54 PM,57.9,55.0,90,30.04,7.0,Calm,Calm,-,N/A,,Scattered Clouds,0,2012-10-27 03:54:00